Molniya
NORAD ID: 28163
Int'l Code: 2004-005A
Perigee: 1,321.7 km
Apogee: 39,046.2 km
Inclination: 64.7 °
Period: 717.8 minutes
Semi major axis: 26554 km
Launch date: February 18, 2004
Source: Commonwealth of Independent States (former USSR) (CIS)
Comments: Military communications.
Two Line Element Set (TLE):
1 28163U 04005A 13146.10183506 .00000049 00000-0 10000-3 0 1447
2 28163 064.6930 126.6533 7103090 251.3435 110.6859 02.00624578 67893
Source: AFSPC
NASA's NSSDC Master Catalog entry for MOLNIYA 1-93